Home   Weather   Latakia   Past weeks

Flag for Syria Past Weather in Latakia, Syria — Yesterday and Last 2 Weeks

Now
81 °F

Warm.


Feels Like: 81 °F
Forecast: 72 / 82 °F
Wind: 2 mph from Northwest

Location: Lattakia Airport

Current Time: Oct 18, 2018 at 10:12:16 am

Latest Report: Oct 18, 2018 at 10:00 am


Visibility: 2 mi

Pressure: 29.89 "Hg

Humidity: 45%

Dew Point: 57 °F

Location of LatakiaLocation

Past Weather in Latakia — Graph

°F

Latakia Temperature Yesterday

Maximum temperature yesterday: 86 °F (at 3:00 pm)
Minimum temperature yesterday: 70 °F (at 4:00 am)
Average temperature yesterday: 77 °F

High & Low Weather Summary for the Past Weeks

 TemperatureHumidityPressure
High86 °F (Oct 6, 3:00 pm)88% (Oct 4, 10:00 pm)30.07 "Hg (Oct 4, 10:00 pm)
Low63 °F (Oct 7, 3:00 am)23% (Oct 7, 12:00 pm)29.86 "Hg (Oct 17, 3:00 pm)
Average75 °F64%29.95 "Hg
* Reported Oct 3 9:00 am — Oct 18 9:00 am, Latakia. Weather by CustomWeather, © 2018

Note: Actual official high and low records may vary slightly from our data, if they occured in-between our weather recording intervals... More about our weather records

Advertising

Latakia Weather History for the Previous 24 Hours

Scroll right to see more
 ConditionsComfort  
Time TempWeatherWind HumidityBarometerVisibility
9:00 am
Thu, Oct 18
75 °FHaze.3 mph54%29.89 "Hg2 mi
8:00 am68 °FMild.2 mph64%29.89 "Hg2 mi
7:00 am66 °FMild.5 mph64%29.86 "Hg4 mi
6:00 am66 °FClear.2 mph64%29.89 "Hg10 mi
5:00 am68 °FClear.3 mph56%29.89 "Hg10 mi
4:00 am73 °FClear.2 mph47%29.89 "Hg10 mi
3:00 am75 °FClear.3 mph39%29.89 "Hg10 mi
2:00 am81 °FClear.9 mph30%29.89 "Hg10 mi
1:00 am79 °FClear.2 mph34%29.89 "Hg10 mi
12:00 am79 °FClear.3 mph34%29.89 "Hg10 mi
11:00 pm
Wed, Oct 17
81 °FClear.3 mph32%29.89 "Hg10 mi
9:00 pm79 °FPassing clouds.3 mph37%29.89 "Hg5 mi
8:00 pm79 °FPassing clouds.8 mph37%29.89 "Hg5 mi
6:00 pm79 °FOvercast.17 mph39%29.89 "Hg1 mi
5:00 pm81 °FOvercast.16 mph37%29.86 "Hg1 mi
4:00 pm84 °FMore clouds than sun.12 mph35%29.86 "Hg1 mi
3:00 pm86 °FOvercast.9 mph31%29.86 "Hg1 mi
2:00 pm84 °FOvercast.12 mph43%29.89 "Hg1 mi
1:00 pm84 °FOvercast.9 mph45%29.89 "Hg1 mi
12:00 pm81 °FOvercast.5 mph62%29.92 "Hg4 mi
11:00 am79 °FOvercast.6 mph70%29.92 "Hg4 mi
10:00 am77 °FOvercast.2 mph74%29.92 "Hg4 mi
Weather by CustomWeather, © 2018

See weather overview